GFSNGP_prec_precacc_030.txt.gz
Total_Precipitation_Accumulation
0.00 0.00 0.00 0.00 0.00 0.00 0.00 0.00 0.00 0.00 0.00 0.00 0.00 0.00 0.00 0.00 0.00 0.00 0.00 0.00 0.00 0.00 0.00 0.00 0.00 0.00 0.00 0.00 0.00 0.00 0.00 0.00 0.00 0.00 0.01 0.02 0.02 0.03 0.06 0.02 0.01 0.00 0.00 0.00
0.00 0.00 0.00 0.00 0.00 0.00 0.00 0.00 0.00 0.00 0.00 0.00 0.00 0.00 0.00 0.00 0.00 0.00 0.00 0.00 0.00 0.00 0.00 0.00 0.00 0.00 0.00 0.00 0.00 0.00 0.01 0.01 0.00 0.01 0.02 0.03 0.04 0.05 0.01 0.01 0.01 0.00 0.00 0.00
0.00 0.00 0.00 0.00 0.00 0.00 0.00 0.00 0.00 0.00 0.00 0.00 0.00 0.00 0.00 0.00 0.00 0.00 0.00 0.00 0.00 0.00 0.00 0.00 0.00 0.00 0.00 0.00 0.00 0.00 0.00 0.01 0.01 0.02 0.02 0.02 0.02 0.03 0.03 0.03 0.01 0.00 0.00 0.00
0.00 0.00 0.00 0.00 0.00 0.00 0.00 0.00 0.00 0.00 0.00 0.00 0.00 0.00 0.00 0.00 0.00 0.00 0.00 0.00 0.00 0.00 0.00 0.00 0.00 0.00 0.00 0.00 0.00 0.00 0.00 0.01 0.03 0.02 0.01 0.02 0.05 0.04 0.02 0.00 0.00 0.00 0.00 0.00
0.00 0.00 0.00 0.00 0.00 0.00 0.00 0.00 0.00 0.00 0.00 0.00 0.00 0.00 0.00 0.00 0.02 0.02 0.02 0.01 0.00 0.00 0.00 0.00 0.00 0.00 0.00 0.00 0.00 0.00 0.00 0.01 0.01 0.02 0.02 0.02 0.02 0.05 0.02 0.00 0.00 0.00 0.00 0.00
0.00 0.02 0.01 0.00 0.00 0.00 0.00 0.00 0.00 0.00 0.01 0.00 0.00 0.01 0.03 0.05 0.06 0.06 0.01 0.00 0.00 0.00 0.00 0.00 0.00 0.00 0.00 0.00 0.00 0.00 0.01 0.01 0.01 0.02 0.03 0.08 0.10 0.02 0.00 0.00 0.00 0.00 0.00 0.00
0.00 0.02 0.00 0.00 0.00 0.00 0.06 0.06 0.01 0.02 0.01 0.01 0.01 0.06 0.09 0.05 0.05 0.01 0.00 0.00 0.00 0.00 0.00 0.00 0.00 0.00 0.00 0.00 0.00 0.00 0.00 0.01 0.04 0.09 0.07 0.03 0.00 0.00 0.00 0.00 0.00 0.00 0.01 0.01
0.01 0.01 0.01 0.00 0.00 0.02 0.03 0.02 0.02 0.01 0.00 0.02 0.07 0.08 0.02 0.00 0.00 0.00 0.00 0.00 0.00 0.00 0.00 0.00 0.00 0.00 0.00 0.00 0.00 0.00 0.01 0.02 0.02 0.01 0.00 0.00 0.00 0.00 0.00 0.00 0.00 0.00 0.01 0.01
0.02 0.01 0.00 0.00 0.01 0.02 0.01 0.04 0.03 0.01 0.03 0.08 0.04 0.00 0.00 0.00 0.00 0.00 0.00 0.00 0.00 0.01 0.01 0.00 0.00 0.00 0.00 0.00 0.01 0.01 0.00 0.01 0.00 0.00 0.00 0.00 0.00 0.00 0.00 0.00 0.00 0.00 0.00 0.01
0.01 0.00 0.00 0.01 0.00 0.01 0.01 0.00 0.00 0.01 0.03 0.01 0.00 0.01 0.02 0.01 0.01 0.01 0.01 0.02 0.02 0.00 0.00 0.00 0.00 0.01 0.02 0.01 0.01 0.01 0.01 0.00 0.00 0.00 0.00 0.00 0.00 0.00 0.00 0.00 0.00 0.00 0.00 0.01
0.01 0.00 0.01 0.02 0.04 0.03 0.01 0.01 0.00 0.00 0.00 0.00 0.01 0.01 0.00 0.00 0.01 0.01 0.00 0.00 0.00 0.00 0.00 0.00 0.01 0.01 0.01 0.00 0.00 0.00 0.00 0.00 0.00 0.00 0.00 0.00 0.00 0.00 0.00 0.00 0.00 0.00 0.00 0.01
0.02 0.02 0.04 0.08 0.04 0.03 0.02 0.01 0.00 0.00 0.00 0.00 0.00 0.00 0.01 0.02 0.02 0.01 0.01 0.00 0.00 0.00 0.00 0.00 0.00 0.00 0.00 0.00 0.00 0.00 0.00 0.00 0.00 0.01 0.01 0.01 0.00 0.00 0.00 0.00 0.00 0.00 0.00 0.00
0.02 0.02 0.05 0.06 0.02 0.00 0.01 0.00 0.00 0.00 0.00 0.00 0.00 0.01 0.04 0.03 0.01 0.01 0.01 0.01 0.01 0.01 0.00 0.00 0.00 0.00 0.00 0.00 0.00 0.00 0.00 0.00 0.01 0.02 0.02 0.02 0.01 0.01 0.01 0.01 0.00 0.00 0.00 0.00
0.00 0.02 0.03 0.01 0.01 0.00 0.00 0.00 0.00 0.00 0.00 0.01 0.06 0.07 0.04 0.04 0.03 0.02 0.01 0.00 0.00 0.00 0.00 0.00 0.00 0.00 0.00 0.00 0.00 0.00 0.00 0.01 0.01 0.02 0.02 0.02 0.02 0.01 0.02 0.03 0.02 0.02 0.01 0.00
0.00 0.01 0.04 0.03 0.01 0.00 0.00 0.00 0.00 0.02 0.07 0.12 0.08 0.04 0.02 0.01 0.01 0.01 0.01 0.01 0.01 0.00 0.00 0.00 0.00 0.00 0.00 0.00 0.00 0.00 0.00 0.01 0.01 0.02 0.01 0.01 0.01 0.02 0.02 0.02 0.02 0.01 0.01 0.00
0.01 0.00 0.00 0.01 0.01 0.00 0.01 0.03 0.10 0.26 0.22 0.11 0.04 0.01 0.01 0.02 0.01 0.01 0.00 0.00 0.00 0.00 0.00 0.00 0.00 0.00 0.00 0.00 0.00 0.00 0.01 0.02 0.03 0.02 0.02 0.02 0.02 0.02 0.02 0.02 0.02 0.02 0.01 0.01
0.00 0.00 0.02 0.04 0.05 0.09 0.16 0.20 0.22 0.19 0.10 0.03 0.01 0.01 0.01 0.00 0.00 0.00 0.00 0.00 0.00 0.00 0.01 0.01 0.00 0.00 0.00 0.00 0.00 0.01 0.02 0.01 0.02 0.03 0.03 0.02 0.03 0.03 0.02 0.03 0.02 0.02 0.01 0.01
0.00 0.01 0.04 0.10 0.25 0.25 0.16 0.09 0.06 0.02 0.01 0.01 0.01 0.00 0.00 0.00 0.00 0.00 0.00 0.00 0.01 0.01 0.01 0.00 0.00 0.00 0.00 0.00 0.01 0.01 0.02 0.03 0.04 0.03 0.03 0.04 0.03 0.03 0.03 0.03 0.03 0.03 0.02 0.01
0.07 0.15 0.18 0.18 0.13 0.09 0.04 0.02 0.01 0.01 0.00 0.00 0.00 0.00 0.00 0.00 0.00 0.00 0.00 0.01 0.01 0.01 0.00 0.00 0.00 0.00 0.00 0.00 0.01 0.03 0.04 0.04 0.04 0.04 0.05 0.04 0.04 0.04 0.04 0.04 0.03 0.02 0.01 0.01
0.10 0.09 0.07 0.04 0.01 0.00 0.01 0.00 0.00 0.00 0.00 0.00 0.00 0.00 0.00 0.00 0.00 0.00 0.01 0.01 0.01 0.02 0.01 0.01 0.01 0.00 0.00 0.01 0.02 0.02 0.03 0.04 0.06 0.06 0.06 0.05 0.05 0.05 0.04 0.03 0.03 0.03 0.03 0.03
0.00 0.00 0.00 0.00 0.00 0.00 0.00 0.00 0.00 0.00 0.00 0.00 0.00 0.00 0.00 0.00 0.00 0.02 0.03 0.03 0.01 0.01 0.00 0.01 0.02 0.01 0.01 0.01 0.02 0.03 0.04 0.06 0.08 0.09 0.08 0.08 0.06 0.04 0.05 0.05 0.05 0.06 0.05 0.04
0.00 0.00 0.00 0.00 0.00 0.00 0.00 0.00 0.00 0.00 0.00 0.00 0.00 0.00 0.00 0.00 0.01 0.02 0.02 0.03 0.02 0.03 0.02 0.02 0.01 0.01 0.02 0.03 0.04 0.04 0.05 0.07 0.09 0.09 0.09 0.08 0.08 0.07 0.06 0.06 0.08 0.07 0.07 0.06
0.00 0.00 0.00 0.00 0.00 0.00 0.00 0.00 0.00 0.00 0.00 0.00 0.00 0.00 0.01 0.02 0.03 0.06 0.05 0.02 0.02 0.03 0.03 0.02 0.03 0.03 0.04 0.05 0.05 0.05 0.05 0.07 0.08 0.09 0.09 0.08 0.08 0.08 0.08 0.07 0.06 0.08 0.08 0.07
0.00 0.00 0.00 0.00 0.00 0.00 0.00 0.00 0.00 0.00 0.00 0.00 0.00 0.00 0.02 0.04 0.03 0.02 0.04 0.03 0.03 0.03 0.04 0.04 0.05 0.06 0.06 0.08 0.08 0.08 0.08 0.08 0.07 0.08 0.08 0.08 0.08 0.08 0.09 0.08 0.08 0.07 0.08 0.08
0.00 0.00 0.00 0.00 0.00 0.00 0.00 0.00 0.00 0.00 0.01 0.01 0.01 0.01 0.01 0.03 0.09 0.03 0.02 0.03 0.04 0.06 0.06 0.05 0.07 0.07 0.10 0.11 0.09 0.08 0.07 0.06 0.07 0.09 0.10 0.10 0.09 0.10 0.10 0.10 0.10 0.09 0.10 0.09
0.00 0.00 0.00 0.00 0.00 0.00 0.00 0.00 0.01 0.02 0.03 0.01 0.02 0.02 0.01 0.02 0.03 0.04 0.04 0.04 0.05 0.05 0.08 0.08 0.08 0.08 0.11 0.11 0.10 0.08 0.08 0.08 0.07 0.08 0.10 0.11 0.11 0.11 0.10 0.10 0.10 0.10 0.11 0.11
0.00 0.00 0.00 0.00 0.01 0.01 0.02 0.04 0.04 0.03 0.03 0.04 0.05 0.01 0.02 0.02 0.03 0.05 0.05 0.06 0.07 0.07 0.10 0.10 0.09 0.10 0.12 0.13 0.12 0.11 0.10 0.09 0.08 0.08 0.11 0.12 0.12 0.12 0.12 0.13 0.13 0.13 0.13 0.13

GFSNGP_prec_precacc_033.txt.gz
Total_Precipitation_Accumulation
0.00 0.00 0.00 0.00 0.00 0.00 0.00 0.00 0.00 0.00 0.00 0.00 0.00 0.00 0.00 0.00 0.00 0.00 0.00 0.00 0.00 0.00 0.00 0.00 0.00 0.00 0.00 0.00 0.00 0.00 0.00 0.00 0.00 0.00 0.01 0.02 0.02 0.03 0.06 0.02 0.01 0.00 0.00 0.00
0.00 0.00 0.00 0.00 0.00 0.00 0.00 0.00 0.00 0.00 0.00 0.00 0.00 0.00 0.00 0.00 0.00 0.00 0.00 0.00 0.00 0.00 0.00 0.00 0.00 0.00 0.00 0.00 0.00 0.00 0.01 0.01 0.00 0.01 0.02 0.03 0.04 0.05 0.01 0.01 0.01 0.00 0.00 0.00
0.00 0.00 0.00 0.00 0.00 0.00 0.00 0.00 0.00 0.00 0.00 0.00 0.00 0.00 0.00 0.00 0.00 0.00 0.00 0.00 0.00 0.00 0.00 0.00 0.00 0.00 0.00 0.00 0.00 0.00 0.00 0.01 0.01 0.02 0.02 0.02 0.02 0.03 0.03 0.03 0.01 0.00 0.00 0.00
0.00 0.00 0.00 0.00 0.00 0.00 0.00 0.00 0.00 0.00 0.00 0.00 0.00 0.00 0.00 0.00 0.00 0.00 0.00 0.00 0.00 0.00 0.00 0.00 0.00 0.00 0.00 0.00 0.00 0.00 0.00 0.01 0.03 0.02 0.01 0.02 0.05 0.04 0.02 0.00 0.00 0.00 0.00 0.00
0.00 0.00 0.00 0.00 0.00 0.00 0.00 0.00 0.00 0.00 0.00 0.00 0.00 0.00 0.00 0.00 0.02 0.02 0.02 0.01 0.00 0.00 0.00 0.00 0.00 0.00 0.00 0.00 0.00 0.00 0.00 0.01 0.01 0.02 0.02 0.02 0.02 0.05 0.02 0.00 0.00 0.00 0.00 0.00
0.00 0.02 0.01 0.00 0.00 0.00 0.00 0.00 0.00 0.00 0.01 0.00 0.00 0.01 0.03 0.05 0.06 0.06 0.01 0.00 0.00 0.00 0.00 0.00 0.00 0.00 0.00 0.00 0.00 0.00 0.01 0.01 0.01 0.02 0.03 0.08 0.10 0.02 0.00 0.00 0.00 0.00 0.00 0.00
0.00 0.02 0.00 0.00 0.00 0.00 0.06 0.06 0.01 0.02 0.01 0.01 0.01 0.06 0.09 0.05 0.05 0.01 0.00 0.00 0.00 0.00 0.00 0.00 0.00 0.00 0.00 0.00 0.00 0.00 0.00 0.01 0.04 0.09 0.07 0.03 0.00 0.00 0.00 0.00 0.00 0.00 0.01 0.01
0.01 0.01 0.01 0.00 0.00 0.02 0.03 0.02 0.02 0.01 0.00 0.02 0.07 0.08 0.02 0.00 0.00 0.00 0.00 0.00 0.00 0.00 0.00 0.01 0.01 0.01 0.00 0.00 0.00 0.00 0.01 0.02 0.02 0.01 0.00 0.00 0.00 0.00 0.00 0.00 0.00 0.00 0.01 0.01
0.02 0.01 0.00 0.00 0.01 0.02 0.01 0.04 0.03 0.01 0.03 0.08 0.04 0.00 0.00 0.00 0.00 0.00 0.00 0.00 0.00 0.01 0.02 0.02 0.01 0.00 0.01 0.00 0.01 0.01 0.00 0.01 0.00 0.00 0.00 0.00 0.00 0.00 0.00 0.00 0.00 0.00 0.00 0.01
0.01 0.00 0.00 0.01 0.00 0.01 0.01 0.00 0.00 0.01 0.03 0.01 0.00 0.01 0.02 0.01 0.01 0.01 0.01 0.02 0.02 0.02 0.01 0.01 0.00 0.01 0.02 0.01 0.01 0.01 0.01 0.00 0.00 0.00 0.00 0.00 0.00 0.00 0.00 0.00 0.00 0.00 0.00 0.01
0.01 0.00 0.01 0.02 0.04 0.03 0.01 0.01 0.00 0.00 0.00 0.00 0.01 0.01 0.00 0.00 0.01 0.01 0.00 0.00 0.01 0.01 0.01 0.00 0.01 0.01 0.01 0.00 0.00 0.00 0.00 0.00 0.00 0.00 0.00 0.00 0.00 0.00 0.00 0.00 0.00 0.00 0.01 0.01
0.02 0.02 0.04 0.08 0.04 0.03 0.02 0.01 0.00 0.00 0.00 0.00 0.00 0.00 0.01 0.02 0.02 0.01 0.01 0.01 0.01 0.01 0.01 0.01 0.00 0.00 0.00 0.00 0.00 0.00 0.00 0.00 0.00 0.01 0.01 0.01 0.00 0.00 0.00 0.00 0.00 0.00 0.00 0.00
0.02 0.02 0.05 0.06 0.02 0.00 0.01 0.00 0.00 0.00 0.00 0.00 0.00 0.01 0.04 0.03 0.02 0.02 0.02 0.02 0.02 0.01 0.00 0.00 0.00 0.00 0.00 0.00 0.00 0.00 0.00 0.00 0.01 0.02 0.02 0.02 0.01 0.01 0.02 0.01 0.00 0.00 0.00 0.00
0.00 0.02 0.03 0.01 0.01 0.00 0.00 0.00 0.00 0.00 0.00 0.01 0.06 0.07 0.05 0.05 0.04 0.02 0.02 0.01 0.00 0.00 0.00 0.00 0.00 0.00 0.00 0.00 0.00 0.00 0.00 0.01 0.01 0.02 0.02 0.02 0.02 0.03 0.04 0.05 0.03 0.03 0.02 0.00
0.00 0.01 0.04 0.03 0.01 0.00 0.00 0.00 0.00 0.02 0.07 0.12 0.09 0.05 0.02 0.02 0.02 0.01 0.01 0.01 0.01 0.01 0.00 0.00 0.00 0.00 0.00 0.00 0.00 0.00 0.00 0.01 0.01 0.02 0.02 0.02 0.02 0.03 0.03 0.04 0.04 0.03 0.02 0.01
0.01 0.00 0.00 0.01 0.01 0.00 0.01 0.03 0.10 0.26 0.22 0.12 0.04 0.01 0.01 0.02 0.01 0.01 0.00 0.00 0.00 0.00 0.00 0.00 0.00 0.00 0.00 0.00 0.00 0.00 0.01 0.02 0.03 0.02 0.02 0.02 0.03 0.03 0.03 0.04 0.04 0.03 0.02 0.01
0.00 0.00 0.02 0.04 0.05 0.09 0.16 0.20 0.22 0.19 0.10 0.03 0.01 0.01 0.01 0.00 0.00 0.00 0.00 0.00 0.00 0.00 0.01 0.01 0.00 0.00 0.00 0.00 0.00 0.01 0.02 0.02 0.02 0.04 0.03 0.03 0.04 0.04 0.04 0.04 0.04 0.04 0.03 0.02
0.00 0.01 0.04 0.10 0.25 0.25 0.16 0.09 0.06 0.02 0.01 0.01 0.01 0.00 0.00 0.00 0.00 0.00 0.00 0.00 0.01 0.01 0.01 0.00 0.00 0.00 0.00 0.00 0.01 0.01 0.03 0.04 0.05 0.05 0.05 0.06 0.05 0.04 0.05 0.05 0.04 0.04 0.03 0.01
0.07 0.15 0.18 0.18 0.13 0.09 0.04 0.02 0.01 0.01 0.00 0.00 0.00 0.00 0.00 0.00 0.00 0.00 0.00 0.01 0.01 0.01 0.00 0.00 0.00 0.00 0.00 0.00 0.01 0.03 0.04 0.05 0.05 0.06 0.06 0.06 0.05 0.05 0.06 0.06 0.05 0.04 0.03 0.03
0.10 0.09 0.07 0.04 0.01 0.00 0.01 0.00 0.00 0.00 0.00 0.00 0.00 0.00 0.00 0.00 0.00 0.00 0.01 0.01 0.01 0.02 0.01 0.01 0.01 0.00 0.01 0.01 0.02 0.03 0.04 0.06 0.07 0.07 0.07 0.07 0.08 0.08 0.07 0.06 0.05 0.05 0.05 0.05
0.00 0.00 0.00 0.00 0.00 0.00 0.00 0.00 0.00 0.00 0.00 0.00 0.00 0.00 0.00 0.00 0.00 0.02 0.03 0.03 0.01 0.01 0.00 0.01 0.02 0.02 0.02 0.02 0.04 0.05 0.06 0.08 0.10 0.10 0.10 0.10 0.09 0.08 0.08 0.08 0.08 0.08 0.07 0.06
0.00 0.00 0.00 0.00 0.00 0.00 0.00 0.00 0.00 0.00 0.00 0.00 0.00 0.00 0.00 0.00 0.01 0.02 0.02 0.03 0.03 0.03 0.03 0.02 0.02 0.01 0.03 0.04 0.06 0.07 0.07 0.10 0.12 0.11 0.11 0.11 0.13 0.12 0.11 0.10 0.11 0.10 0.09 0.08
0.00 0.00 0.00 0.00 0.00 0.00 0.00 0.00 0.00 0.00 0.00 0.00 0.00 0.00 0.01 0.02 0.03 0.06 0.05 0.02 0.02 0.03 0.04 0.03 0.04 0.04 0.04 0.07 0.08 0.09 0.11 0.14 0.14 0.12 0.11 0.10 0.10 0.10 0.10 0.09 0.09 0.10 0.10 0.10
0.00 0.00 0.00 0.00 0.00 0.00 0.00 0.00 0.00 0.00 0.00 0.00 0.00 0.00 0.02 0.04 0.03 0.02 0.04 0.03 0.03 0.04 0.05 0.06 0.07 0.06 0.08 0.13 0.15 0.16 0.17 0.15 0.11 0.10 0.09 0.09 0.09 0.09 0.10 0.09 0.09 0.08 0.09 0.10
0.00 0.00 0.00 0.00 0.00 0.00 0.00 0.00 0.00 0.00 0.01 0.01 0.01 0.01 0.01 0.03 0.09 0.03 0.03 0.03 0.05 0.07 0.07 0.07 0.08 0.08 0.12 0.14 0.14 0.13 0.13 0.11 0.10 0.11 0.12 0.12 0.10 0.11 0.11 0.11 0.10 0.10 0.11 0.10
0.00 0.00 0.00 0.00 0.00 0.00 0.00 0.00 0.01 0.02 0.03 0.01 0.02 0.02 0.01 0.02 0.03 0.04 0.04 0.05 0.06 0.06 0.09 0.09 0.08 0.09 0.12 0.13 0.13 0.12 0.13 0.12 0.10 0.11 0.12 0.13 0.12 0.12 0.11 0.10 0.10 0.10 0.11 0.12
0.00 0.00 0.00 0.00 0.01 0.01 0.02 0.04 0.04 0.03 0.03 0.04 0.05 0.01 0.02 0.02 0.03 0.05 0.05 0.07 0.07 0.08 0.10 0.10 0.10 0.11 0.13 0.15 0.15 0.13 0.13 0.13 0.11 0.11 0.13 0.14 0.13 0.12 0.12 0.13 0.14 0.14 0.14 0.14

GFSNGP_prec_precacc_036.txt.gz
Total_Precipitation_Accumulation
0.00 0.00 0.00 0.00 0.00 0.00 0.00 0.00 0.00 0.00 0.00 0.00 0.00 0.00 0.00 0.00 0.00 0.00 0.00 0.00 0.00 0.00 0.00 0.00 0.00 0.00 0.00 0.00 0.00 0.00 0.00 0.00 0.00 0.00 0.01 0.02 0.02 0.03 0.06 0.02 0.01 0.00 0.00 0.00
0.00 0.00 0.00 0.00 0.00 0.00 0.00 0.00 0.00 0.00 0.00 0.00 0.00 0.00 0.00 0.00 0.00 0.00 0.00 0.00 0.00 0.00 0.00 0.00 0.00 0.00 0.00 0.00 0.00 0.00 0.01 0.01 0.00 0.01 0.02 0.03 0.04 0.05 0.01 0.01 0.01 0.00 0.00 0.00
0.00 0.00 0.00 0.00 0.00 0.00 0.00 0.00 0.00 0.00 0.00 0.00 0.00 0.00 0.00 0.00 0.00 0.00 0.00 0.00 0.00 0.00 0.00 0.00 0.00 0.00 0.00 0.00 0.00 0.00 0.00 0.01 0.01 0.02 0.02 0.02 0.02 0.03 0.03 0.03 0.01 0.00 0.00 0.00
0.00 0.00 0.00 0.00 0.00 0.00 0.00 0.00 0.00 0.00 0.00 0.00 0.00 0.00 0.00 0.00 0.00 0.00 0.00 0.00 0.00 0.00 0.00 0.00 0.00 0.00 0.00 0.00 0.00 0.00 0.00 0.01 0.03 0.02 0.01 0.02 0.05 0.04 0.02 0.00 0.00 0.00 0.00 0.00
0.00 0.00 0.00 0.00 0.00 0.00 0.00 0.00 0.00 0.00 0.00 0.00 0.00 0.00 0.00 0.00 0.02 0.02 0.02 0.01 0.00 0.00 0.00 0.00 0.00 0.00 0.00 0.00 0.00 0.00 0.00 0.01 0.01 0.02 0.02 0.02 0.02 0.05 0.02 0.00 0.00 0.00 0.00 0.00
0.00 0.02 0.01 0.00 0.00 0.00 0.00 0.00 0.00 0.00 0.01 0.00 0.00 0.01 0.03 0.05 0.06 0.06 0.01 0.00 0.00 0.00 0.00 0.00 0.00 0.00 0.00 0.00 0.00 0.00 0.01 0.01 0.01 0.02 0.03 0.08 0.10 0.02 0.00 0.00 0.00 0.00 0.00 0.00
0.00 0.02 0.00 0.00 0.00 0.00 0.06 0.06 0.01 0.02 0.01 0.01 0.01 0.06 0.09 0.05 0.05 0.01 0.00 0.00 0.00 0.00 0.00 0.00 0.00 0.00 0.00 0.00 0.01 0.01 0.01 0.01 0.05 0.09 0.08 0.03 0.00 0.00 0.00 0.00 0.00 0.00 0.01 0.01
0.01 0.01 0.01 0.00 0.00 0.02 0.03 0.02 0.02 0.01 0.00 0.02 0.07 0.08 0.02 0.00 0.00 0.00 0.00 0.00 0.00 0.00 0.00 0.01 0.01 0.01 0.01 0.01 0.01 0.00 0.01 0.03 0.02 0.01 0.00 0.00 0.00 0.00 0.00 0.00 0.00 0.00 0.01 0.01
0.02 0.01 0.00 0.00 0.01 0.02 0.01 0.04 0.03 0.01 0.03 0.08 0.04 0.00 0.00 0.00 0.00 0.00 0.00 0.00 0.00 0.01 0.02 0.02 0.01 0.01 0.02 0.01 0.01 0.01 0.00 0.01 0.00 0.00 0.00 0.00 0.00 0.00 0.00 0.00 0.00 0.01 0.01 0.01
0.01 0.00 0.00 0.01 0.00 0.01 0.01 0.00 0.00 0.01 0.03 0.01 0.00 0.01 0.02 0.01 0.01 0.01 0.01 0.02 0.02 0.02 0.01 0.01 0.01 0.01 0.02 0.01 0.01 0.01 0.01 0.00 0.00 0.00 0.00 0.00 0.00 0.00 0.00 0.00 0.01 0.01 0.01 0.01
0.01 0.00 0.01 0.02 0.04 0.03 0.01 0.01 0.00 0.00 0.00 0.00 0.01 0.01 0.00 0.00 0.01 0.01 0.00 0.00 0.01 0.01 0.01 0.00 0.01 0.01 0.01 0.01 0.00 0.00 0.00 0.00 0.00 0.00 0.00 0.00 0.00 0.00 0.00 0.00 0.00 0.01 0.01 0.02
0.02 0.02 0.04 0.08 0.04 0.03 0.02 0.01 0.00 0.00 0.00 0.00 0.00 0.00 0.01 0.02 0.02 0.01 0.01 0.02 0.01 0.01 0.01 0.01 0.00 0.00 0.00 0.00 0.00 0.00 0.00 0.00 0.00 0.01 0.01 0.01 0.00 0.00 0.00 0.00 0.00 0.00 0.00 0.00
0.02 0.02 0.05 0.06 0.02 0.00 0.01 0.00 0.00 0.00 0.00 0.00 0.00 0.01 0.04 0.03 0.02 0.02 0.02 0.02 0.02 0.01 0.00 0.00 0.00 0.00 0.00 0.00 0.00 0.00 0.00 0.00 0.01 0.02 0.02 0.02 0.01 0.01 0.02 0.01 0.00 0.00 0.00 0.00
0.00 0.02 0.03 0.01 0.01 0.00 0.00 0.00 0.00 0.00 0.00 0.01 0.06 0.07 0.05 0.05 0.04 0.03 0.02 0.01 0.00 0.00 0.00 0.00 0.00 0.00 0.00 0.00 0.00 0.00 0.00 0.01 0.01 0.02 0.02 0.02 0.02 0.03 0.04 0.05 0.04 0.03 0.02 0.00
0.00 0.01 0.04 0.03 0.01 0.00 0.00 0.00 0.00 0.02 0.07 0.12 0.09 0.05 0.02 0.02 0.02 0.01 0.01 0.01 0.01 0.01 0.00 0.00 0.00 0.00 0.00 0.00 0.00 0.00 0.00 0.01 0.01 0.02 0.02 0.02 0.02 0.03 0.04 0.04 0.04 0.03 0.02 0.01
0.01 0.00 0.00 0.01 0.01 0.00 0.01 0.03 0.10 0.26 0.22 0.12 0.04 0.01 0.01 0.02 0.01 0.01 0.00 0.00 0.00 0.00 0.00 0.00 0.00 0.00 0.00 0.00 0.00 0.00 0.01 0.02 0.03 0.03 0.02 0.02 0.03 0.03 0.03 0.04 0.05 0.04 0.03 0.02
0.00 0.00 0.02 0.04 0.05 0.09 0.16 0.20 0.22 0.19 0.10 0.03 0.01 0.01 0.01 0.00 0.00 0.00 0.00 0.00 0.00 0.00 0.01 0.01 0.00 0.00 0.00 0.00 0.00 0.02 0.03 0.03 0.03 0.05 0.05 0.05 0.06 0.06 0.06 0.06 0.05 0.04 0.03 0.02
0.00 0.01 0.04 0.10 0.25 0.25 0.16 0.09 0.06 0.02 0.01 0.01 0.01 0.00 0.00 0.00 0.00 0.00 0.00 0.00 0.01 0.01 0.01 0.00 0.00 0.00 0.00 0.00 0.01 0.01 0.03 0.04 0.05 0.07 0.07 0.08 0.07 0.06 0.07 0.06 0.05 0.05 0.04 0.02
0.07 0.15 0.18 0.18 0.13 0.09 0.04 0.02 0.01 0.01 0.00 0.00 0.00 0.00 0.00 0.00 0.00 0.00 0.00 0.01 0.01 0.01 0.00 0.00 0.00 0.00 0.00 0.00 0.01 0.03 0.05 0.06 0.06 0.07 0.08 0.07 0.06 0.06 0.07 0.08 0.08 0.06 0.05 0.05
0.10 0.09 0.07 0.04 0.01 0.00 0.01 0.00 0.00 0.00 0.00 0.00 0.00 0.00 0.00 0.00 0.00 0.00 0.01 0.01 0.01 0.02 0.01 0.01 0.01 0.00 0.01 0.02 0.02 0.04 0.05 0.08 0.10 0.11 0.09 0.08 0.08 0.09 0.08 0.08 0.08 0.09 0.08 0.07
0.00 0.00 0.00 0.00 0.00 0.00 0.00 0.00 0.00 0.00 0.00 0.00 0.00 0.00 0.00 0.00 0.00 0.02 0.03 0.03 0.01 0.01 0.00 0.01 0.02 0.02 0.03 0.03 0.04 0.06 0.08 0.10 0.12 0.13 0.13 0.13 0.12 0.10 0.10 0.11 0.12 0.13 0.13 0.10
0.00 0.00 0.00 0.00 0.00 0.00 0.00 0.00 0.00 0.00 0.00 0.00 0.00 0.00 0.00 0.00 0.01 0.02 0.02 0.03 0.03 0.03 0.03 0.02 0.03 0.02 0.03 0.04 0.07 0.08 0.09 0.13 0.16 0.16 0.19 0.21 0.19 0.14 0.12 0.12 0.14 0.13 0.12 0.12
0.00 0.00 0.00 0.00 0.00 0.00 0.00 0.00 0.00 0.00 0.00 0.00 0.00 0.00 0.01 0.02 0.03 0.06 0.05 0.02 0.02 0.03 0.04 0.04 0.06 0.04 0.04 0.07 0.09 0.12 0.15 0.20 0.22 0.25 0.23 0.16 0.14 0.12 0.11 0.10 0.10 0.12 0.12 0.11
0.00 0.00 0.00 0.00 0.00 0.00 0.00 0.00 0.00 0.00 0.00 0.00 0.00 0.00 0.02 0.04 0.03 0.02 0.04 0.03 0.03 0.04 0.06 0.07 0.07 0.06 0.08 0.14 0.16 0.17 0.19 0.19 0.15 0.14 0.14 0.13 0.12 0.11 0.12 0.11 0.10 0.09 0.10 0.11
0.00 0.00 0.00 0.00 0.00 0.00 0.00 0.00 0.00 0.00 0.01 0.01 0.01 0.01 0.01 0.03 0.09 0.03 0.03 0.04 0.05 0.07 0.08 0.07 0.08 0.08 0.13 0.15 0.15 0.14 0.15 0.14 0.11 0.14 0.15 0.15 0.13 0.14 0.13 0.12 0.11 0.10 0.11 0.11
0.00 0.00 0.00 0.00 0.00 0.00 0.00 0.00 0.01 0.02 0.03 0.01 0.02 0.02 0.02 0.02 0.03 0.04 0.05 0.05 0.06 0.06 0.09 0.10 0.09 0.09 0.13 0.13 0.14 0.13 0.14 0.13 0.12 0.13 0.15 0.15 0.14 0.14 0.12 0.11 0.10 0.11 0.12 0.13
0.00 0.00 0.00 0.00 0.01 0.01 0.02 0.04 0.04 0.03 0.03 0.04 0.05 0.01 0.02 0.02 0.04 0.05 0.06 0.07 0.08 0.08 0.11 0.11 0.11 0.11 0.13 0.15 0.15 0.14 0.14 0.14 0.13 0.12 0.15 0.16 0.15 0.14 0.14 0.14 0.14 0.14 0.14 0.15

GFSNGP_prec_precacc_039.txt.gz
Total_Precipitation_Accumulation
0.00 0.00 0.00 0.00 0.00 0.00 0.00 0.00 0.00 0.00 0.00 0.00 0.00 0.00 0.00 0.00 0.00 0.00 0.00 0.00 0.00 0.00 0.01 0.01 0.01 0.01 0.01 0.00 0.00 0.00 0.00 0.00 0.00 0.00 0.01 0.02 0.02 0.03 0.06 0.02 0.01 0.00 0.00 0.00
0.00 0.00 0.00 0.00 0.00 0.00 0.00 0.00 0.00 0.00 0.00 0.00 0.00 0.00 0.00 0.00 0.00 0.00 0.00 0.00 0.00 0.00 0.02 0.01 0.02 0.01 0.00 0.00 0.00 0.00 0.01 0.01 0.00 0.01 0.02 0.03 0.04 0.05 0.01 0.01 0.01 0.00 0.00 0.00
0.00 0.00 0.00 0.00 0.00 0.00 0.00 0.00 0.00 0.00 0.00 0.00 0.00 0.00 0.00 0.00 0.00 0.00 0.00 0.00 0.00 0.00 0.00 0.00 0.01 0.01 0.00 0.00 0.00 0.00 0.00 0.01 0.01 0.02 0.02 0.02 0.02 0.03 0.03 0.03 0.01 0.00 0.00 0.00
0.00 0.00 0.00 0.00 0.00 0.00 0.00 0.00 0.00 0.00 0.00 0.00 0.00 0.00 0.00 0.00 0.00 0.00 0.00 0.00 0.00 0.00 0.00 0.00 0.00 0.00 0.00 0.00 0.00 0.00 0.00 0.01 0.03 0.02 0.01 0.02 0.05 0.04 0.02 0.00 0.00 0.00 0.00 0.00
0.00 0.00 0.00 0.00 0.00 0.00 0.00 0.00 0.00 0.00 0.00 0.00 0.00 0.00 0.00 0.00 0.02 0.02 0.02 0.01 0.00 0.00 0.00 0.00 0.00 0.00 0.00 0.00 0.00 0.00 0.00 0.01 0.01 0.02 0.02 0.02 0.02 0.05 0.02 0.00 0.00 0.00 0.00 0.00
0.00 0.02 0.01 0.00 0.00 0.00 0.00 0.00 0.00 0.00 0.01 0.00 0.00 0.01 0.03 0.05 0.06 0.06 0.01 0.00 0.00 0.00 0.00 0.00 0.00 0.00 0.00 0.00 0.00 0.00 0.01 0.01 0.01 0.02 0.04 0.09 0.10 0.02 0.00 0.00 0.00 0.00 0.00 0.00
0.00 0.02 0.00 0.00 0.00 0.00 0.06 0.06 0.01 0.02 0.01 0.01 0.01 0.06 0.09 0.05 0.05 0.01 0.00 0.00 0.00 0.00 0.00 0.00 0.00 0.00 0.00 0.00 0.01 0.01 0.01 0.01 0.05 0.09 0.08 0.03 0.00 0.00 0.00 0.00 0.00 0.00 0.01 0.01
0.01 0.01 0.01 0.00 0.00 0.02 0.03 0.02 0.02 0.01 0.00 0.02 0.07 0.08 0.02 0.00 0.00 0.00 0.00 0.00 0.00 0.00 0.00 0.01 0.01 0.01 0.01 0.01 0.01 0.00 0.01 0.03 0.02 0.01 0.00 0.00 0.00 0.00 0.00 0.00 0.00 0.00 0.01 0.01
0.02 0.01 0.00 0.00 0.01 0.02 0.01 0.04 0.03 0.01 0.03 0.08 0.04 0.00 0.00 0.00 0.00 0.00 0.00 0.00 0.00 0.01 0.02 0.02 0.01 0.01 0.02 0.01 0.01 0.01 0.00 0.01 0.00 0.00 0.00 0.00 0.00 0.00 0.00 0.00 0.00 0.01 0.01 0.01
0.01 0.00 0.00 0.01 0.00 0.01 0.01 0.00 0.00 0.01 0.03 0.01 0.00 0.01 0.02 0.01 0.01 0.01 0.01 0.02 0.02 0.02 0.01 0.01 0.01 0.01 0.02 0.01 0.01 0.01 0.01 0.00 0.00 0.00 0.00 0.00 0.00 0.00 0.00 0.00 0.01 0.01 0.01 0.01
0.01 0.00 0.01 0.02 0.04 0.03 0.01 0.01 0.00 0.00 0.00 0.00 0.01 0.01 0.00 0.00 0.01 0.01 0.00 0.00 0.01 0.01 0.01 0.00 0.01 0.01 0.01 0.01 0.00 0.00 0.00 0.00 0.00 0.00 0.00 0.00 0.00 0.00 0.00 0.00 0.00 0.01 0.01 0.02
0.02 0.02 0.04 0.08 0.04 0.03 0.02 0.01 0.00 0.00 0.00 0.00 0.00 0.00 0.01 0.02 0.02 0.01 0.01 0.02 0.01 0.01 0.01 0.01 0.00 0.00 0.00 0.00 0.00 0.00 0.00 0.00 0.00 0.01 0.01 0.01 0.00 0.00 0.00 0.00 0.00 0.00 0.00 0.00
0.02 0.02 0.05 0.06 0.02 0.00 0.01 0.00 0.00 0.00 0.00 0.00 0.00 0.01 0.04 0.03 0.02 0.02 0.02 0.02 0.02 0.01 0.00 0.00 0.00 0.00 0.00 0.00 0.00 0.00 0.00 0.00 0.01 0.02 0.02 0.02 0.01 0.01 0.02 0.01 0.00 0.00 0.00 0.00
0.00 0.02 0.03 0.01 0.01 0.00 0.00 0.00 0.00 0.00 0.00 0.01 0.06 0.07 0.05 0.05 0.04 0.03 0.02 0.01 0.00 0.00 0.00 0.00 0.00 0.00 0.00 0.00 0.00 0.00 0.00 0.01 0.01 0.02 0.02 0.02 0.02 0.03 0.04 0.05 0.04 0.03 0.02 0.00
0.00 0.01 0.04 0.03 0.01 0.00 0.00 0.00 0.00 0.02 0.07 0.12 0.09 0.05 0.02 0.02 0.02 0.01 0.01 0.01 0.01 0.01 0.00 0.00 0.00 0.00 0.00 0.00 0.00 0.00 0.00 0.01 0.01 0.02 0.02 0.02 0.03 0.05 0.06 0.07 0.06 0.03 0.02 0.01
0.01 0.00 0.00 0.01 0.01 0.00 0.01 0.03 0.10 0.26 0.22 0.12 0.04 0.01 0.01 0.02 0.01 0.01 0.00 0.00 0.00 0.00 0.00 0.00 0.00 0.00 0.00 0.00 0.00 0.00 0.01 0.02 0.03 0.04 0.04 0.04 0.05 0.06 0.06 0.07 0.07 0.05 0.04 0.02
0.00 0.00 0.02 0.04 0.05 0.09 0.16 0.20 0.22 0.19 0.10 0.03 0.01 0.01 0.01 0.00 0.00 0.00 0.00 0.00 0.00 0.00 0.01 0.01 0.00 0.00 0.00 0.00 0.00 0.02 0.03 0.03 0.04 0.06 0.06 0.07 0.07 0.08 0.07 0.08 0.08 0.06 0.03 0.02
0.00 0.01 0.04 0.10 0.25 0.25 0.16 0.09 0.06 0.02 0.01 0.01 0.01 0.00 0.00 0.00 0.00 0.00 0.00 0.00 0.01 0.01 0.01 0.00 0.00 0.00 0.00 0.00 0.01 0.01 0.03 0.05 0.06 0.07 0.08 0.09 0.07 0.07 0.08 0.07 0.06 0.05 0.04 0.02
0.07 0.15 0.18 0.18 0.13 0.09 0.04 0.02 0.01 0.01 0.00 0.00 0.00 0.00 0.00 0.00 0.00 0.00 0.00 0.01 0.01 0.01 0.00 0.00 0.00 0.00 0.00 0.00 0.01 0.04 0.05 0.06 0.06 0.08 0.09 0.10 0.11 0.12 0.11 0.09 0.08 0.06 0.06 0.06
0.10 0.09 0.07 0.04 0.01 0.00 0.01 0.00 0.00 0.00 0.00 0.00 0.00 0.00 0.00 0.00 0.00 0.00 0.01 0.01 0.01 0.02 0.01 0.01 0.01 0.00 0.01 0.02 0.02 0.04 0.06 0.09 0.11 0.11 0.12 0.11 0.10 0.09 0.09 0.09 0.10 0.10 0.10 0.11
0.00 0.00 0.00 0.00 0.00 0.00 0.00 0.00 0.00 0.00 0.00 0.00 0.00 0.00 0.00 0.00 0.00 0.02 0.03 0.03 0.01 0.01 0.00 0.01 0.02 0.02 0.03 0.03 0.04 0.06 0.09 0.11 0.14 0.15 0.16 0.17 0.16 0.18 0.23 0.21 0.16 0.14 0.14 0.12
0.00 0.00 0.00 0.00 0.00 0.00 0.00 0.00 0.00 0.00 0.00 0.00 0.00 0.00 0.00 0.00 0.01 0.02 0.02 0.03 0.03 0.03 0.03 0.03 0.03 0.02 0.03 0.04 0.07 0.09 0.09 0.14 0.17 0.18 0.21 0.26 0.29 0.25 0.20 0.17 0.16 0.14 0.13 0.13
0.00 0.00 0.00 0.00 0.00 0.00 0.00 0.00 0.00 0.00 0.00 0.00 0.00 0.00 0.01 0.02 0.03 0.06 0.05 0.02 0.02 0.03 0.04 0.04 0.06 0.04 0.04 0.07 0.09 0.12 0.16 0.21 0.23 0.25 0.24 0.19 0.18 0.17 0.16 0.14 0.12 0.13 0.13 0.12
0.00 0.00 0.00 0.00 0.00 0.00 0.00 0.00 0.00 0.00 0.00 0.00 0.00 0.00 0.02 0.04 0.03 0.02 0.04 0.03 0.03 0.04 0.06 0.07 0.07 0.06 0.08 0.14 0.16 0.18 0.19 0.20 0.15 0.14 0.15 0.14 0.14 0.14 0.14 0.13 0.11 0.11 0.11 0.12
0.00 0.00 0.00 0.00 0.00 0.00 0.00 0.00 0.00 0.00 0.01 0.01 0.01 0.01 0.01 0.03 0.09 0.03 0.03 0.04 0.05 0.07 0.08 0.07 0.09 0.08 0.13 0.15 0.15 0.14 0.15 0.14 0.11 0.14 0.16 0.16 0.14 0.15 0.15 0.14 0.13 0.12 0.12 0.11
0.00 0.00 0.00 0.00 0.00 0.00 0.00 0.00 0.01 0.02 0.03 0.01 0.02 0.02 0.02 0.02 0.03 0.04 0.05 0.05 0.06 0.06 0.09 0.10 0.09 0.09 0.13 0.13 0.14 0.13 0.14 0.13 0.12 0.13 0.15 0.16 0.15 0.15 0.14 0.13 0.12 0.12 0.13 0.14
0.00 0.00 0.00 0.00 0.01 0.01 0.02 0.04 0.04 0.03 0.03 0.04 0.05 0.01 0.03 0.03 0.04 0.05 0.06 0.07 0.08 0.08 0.11 0.11 0.11 0.11 0.13 0.15 0.15 0.14 0.14 0.14 0.13 0.13 0.15 0.16 0.16 0.15 0.14 0.15 0.16 0.15 0.15 0.15

GFSNGP_prec_precacc_042.txt.gz
Total_Precipitation_Accumulation
0.00 0.00 0.00 0.00 0.00 0.00 0.00 0.00 0.00 0.00 0.00 0.00 0.00 0.00 0.00 0.00 0.00 0.00 0.00 0.00 0.00 0.01 0.02 0.01 0.01 0.02 0.02 0.02 0.02 0.02 0.01 0.01 0.01 0.00 0.01 0.02 0.02 0.03 0.06 0.02 0.01 0.00 0.00 0.00
0.00 0.00 0.00 0.00 0.00 0.00 0.00 0.00 0.00 0.00 0.00 0.00 0.00 0.00 0.00 0.00 0.00 0.00 0.00 0.00 0.00 0.01 0.02 0.02 0.04 0.04 0.02 0.02 0.02 0.01 0.01 0.01 0.01 0.01 0.02 0.03 0.04 0.05 0.01 0.01 0.01 0.00 0.00 0.00
0.00 0.00 0.00 0.00 0.00 0.00 0.00 0.00 0.00 0.00 0.00 0.00 0.00 0.00 0.00 0.00 0.00 0.00 0.00 0.00 0.00 0.00 0.00 0.00 0.01 0.03 0.03 0.02 0.01 0.01 0.00 0.01 0.01 0.02 0.02 0.02 0.02 0.03 0.03 0.03 0.01 0.00 0.00 0.00
0.00 0.00 0.00 0.00 0.00 0.00 0.00 0.00 0.00 0.00 0.00 0.00 0.00 0.00 0.00 0.00 0.00 0.00 0.00 0.00 0.00 0.00 0.00 0.00 0.00 0.01 0.01 0.01 0.00 0.00 0.00 0.01 0.03 0.02 0.01 0.03 0.06 0.05 0.03 0.00 0.00 0.00 0.00 0.00
0.00 0.00 0.00 0.00 0.00 0.00 0.00 0.00 0.00 0.00 0.00 0.00 0.00 0.00 0.00 0.00 0.02 0.02 0.02 0.01 0.00 0.00 0.00 0.00 0.00 0.00 0.01 0.00 0.00 0.00 0.00 0.01 0.01 0.02 0.03 0.06 0.07 0.07 0.02 0.00 0.00 0.00 0.00 0.00
0.00 0.02 0.01 0.00 0.00 0.00 0.00 0.00 0.00 0.00 0.01 0.00 0.00 0.01 0.03 0.05 0.06 0.06 0.01 0.00 0.00 0.00 0.00 0.00 0.00 0.00 0.00 0.00 0.00 0.00 0.01 0.01 0.02 0.05 0.08 0.11 0.11 0.02 0.00 0.00 0.00 0.00 0.00 0.00
0.00 0.02 0.00 0.00 0.00 0.00 0.06 0.06 0.01 0.02 0.01 0.01 0.01 0.06 0.09 0.05 0.05 0.01 0.00 0.00 0.00 0.00 0.00 0.00 0.00 0.00 0.00 0.00 0.01 0.01 0.01 0.05 0.11 0.12 0.08 0.03 0.00 0.00 0.00 0.00 0.00 0.00 0.01 0.01
0.01 0.01 0.01 0.00 0.00 0.02 0.03 0.02 0.02 0.01 0.00 0.02 0.07 0.08 0.02 0.00 0.00 0.00 0.00 0.00 0.00 0.00 0.00 0.01 0.01 0.01 0.01 0.01 0.02 0.01 0.03 0.04 0.02 0.01 0.00 0.00 0.00 0.00 0.00 0.00 0.00 0.00 0.01 0.01
0.02 0.01 0.00 0.00 0.01 0.02 0.01 0.04 0.03 0.01 0.03 0.08 0.04 0.00 0.00 0.00 0.00 0.00 0.00 0.00 0.00 0.01 0.02 0.02 0.01 0.01 0.02 0.01 0.02 0.01 0.00 0.01 0.00 0.00 0.00 0.00 0.00 0.00 0.00 0.00 0.00 0.01 0.01 0.01
0.01 0.00 0.00 0.01 0.00 0.01 0.01 0.00 0.00 0.01 0.03 0.01 0.00 0.01 0.02 0.01 0.01 0.01 0.01 0.02 0.02 0.02 0.01 0.01 0.01 0.01 0.02 0.01 0.01 0.01 0.01 0.00 0.00 0.00 0.00 0.00 0.00 0.00 0.00 0.00 0.01 0.01 0.01 0.01
0.01 0.00 0.01 0.02 0.04 0.03 0.01 0.01 0.00 0.00 0.00 0.00 0.01 0.01 0.00 0.00 0.01 0.01 0.00 0.00 0.01 0.01 0.01 0.00 0.01 0.01 0.01 0.01 0.00 0.00 0.00 0.00 0.00 0.00 0.00 0.00 0.00 0.00 0.00 0.00 0.00 0.01 0.01 0.02
0.02 0.02 0.04 0.08 0.04 0.03 0.02 0.01 0.00 0.00 0.00 0.00 0.00 0.00 0.01 0.02 0.02 0.01 0.01 0.02 0.01 0.01 0.01 0.01 0.00 0.00 0.00 0.00 0.00 0.00 0.00 0.00 0.00 0.01 0.01 0.01 0.00 0.00 0.00 0.00 0.00 0.00 0.00 0.00
0.02 0.02 0.05 0.06 0.02 0.00 0.01 0.00 0.00 0.00 0.00 0.00 0.00 0.01 0.04 0.03 0.02 0.02 0.02 0.02 0.02 0.01 0.00 0.00 0.00 0.00 0.00 0.00 0.00 0.00 0.00 0.00 0.01 0.02 0.02 0.02 0.01 0.01 0.02 0.01 0.00 0.00 0.00 0.01
0.00 0.02 0.03 0.01 0.01 0.00 0.00 0.00 0.00 0.00 0.00 0.01 0.06 0.07 0.05 0.05 0.04 0.03 0.02 0.01 0.00 0.00 0.00 0.00 0.00 0.00 0.00 0.00 0.00 0.00 0.00 0.01 0.01 0.02 0.02 0.02 0.02 0.03 0.04 0.06 0.06 0.05 0.03 0.02
0.00 0.01 0.04 0.03 0.01 0.00 0.00 0.00 0.00 0.02 0.07 0.12 0.09 0.05 0.02 0.02 0.02 0.01 0.01 0.01 0.01 0.01 0.00 0.00 0.00 0.00 0.00 0.00 0.00 0.00 0.00 0.01 0.01 0.02 0.02 0.02 0.03 0.05 0.07 0.09 0.09 0.06 0.03 0.02
0.01 0.00 0.00 0.01 0.01 0.00 0.01 0.03 0.10 0.26 0.22 0.12 0.04 0.01 0.01 0.02 0.01 0.01 0.00 0.00 0.00 0.00 0.00 0.00 0.00 0.00 0.00 0.00 0.00 0.00 0.01 0.02 0.03 0.04 0.04 0.04 0.05 0.07 0.07 0.08 0.08 0.07 0.05 0.02
0.00 0.00 0.02 0.04 0.05 0.09 0.16 0.20 0.22 0.19 0.10 0.03 0.01 0.01 0.01 0.00 0.00 0.00 0.00 0.00 0.00 0.00 0.01 0.01 0.00 0.00 0.00 0.00 0.00 0.02 0.03 0.03 0.04 0.06 0.06 0.07 0.08 0.08 0.08 0.10 0.10 0.08 0.06 0.03
0.00 0.01 0.04 0.10 0.25 0.25 0.16 0.09 0.06 0.02 0.01 0.01 0.01 0.00 0.00 0.00 0.00 0.00 0.00 0.00 0.01 0.01 0.01 0.00 0.00 0.00 0.00 0.00 0.01 0.01 0.03 0.05 0.06 0.08 0.08 0.09 0.08 0.08 0.11 0.14 0.13 0.11 0.06 0.03
0.07 0.15 0.18 0.18 0.13 0.09 0.04 0.02 0.01 0.01 0.00 0.00 0.00 0.00 0.00 0.00 0.00 0.00 0.00 0.01 0.01 0.01 0.00 0.00 0.00 0.00 0.00 0.00 0.01 0.04 0.05 0.06 0.07 0.08 0.09 0.10 0.12 0.13 0.14 0.11 0.10 0.09 0.10 0.10
0.10 0.09 0.07 0.04 0.01 0.00 0.01 0.00 0.00 0.00 0.00 0.00 0.00 0.00 0.00 0.00 0.00 0.00 0.01 0.01 0.01 0.02 0.01 0.01 0.01 0.00 0.01 0.02 0.02 0.04 0.06 0.09 0.11 0.12 0.12 0.12 0.12 0.12 0.11 0.13 0.17 0.20 0.17 0.14
0.00 0.00 0.00 0.00 0.00 0.00 0.00 0.00 0.00 0.00 0.00 0.00 0.00 0.00 0.00 0.00 0.00 0.02 0.03 0.03 0.01 0.01 0.00 0.01 0.02 0.02 0.03 0.03 0.04 0.06 0.09 0.11 0.14 0.15 0.17 0.17 0.16 0.19 0.25 0.25 0.22 0.21 0.20 0.17
0.00 0.00 0.00 0.00 0.00 0.00 0.00 0.00 0.00 0.00 0.00 0.00 0.00 0.00 0.00 0.00 0.01 0.02 0.02 0.03 0.03 0.03 0.03 0.03 0.04 0.02 0.03 0.04 0.07 0.09 0.09 0.14 0.17 0.18 0.22 0.26 0.29 0.26 0.21 0.18 0.18 0.17 0.16 0.16
0.00 0.00 0.00 0.00 0.00 0.00 0.00 0.00 0.00 0.00 0.00 0.00 0.00 0.00 0.01 0.02 0.03 0.06 0.06 0.02 0.02 0.03 0.04 0.04 0.06 0.04 0.04 0.07 0.10 0.12 0.16 0.21 0.23 0.25 0.24 0.19 0.19 0.18 0.17 0.14 0.13 0.15 0.15 0.14
0.00 0.00 0.00 0.00 0.00 0.00 0.00 0.00 0.00 0.00 0.00 0.00 0.00 0.00 0.02 0.04 0.03 0.02 0.04 0.03 0.03 0.04 0.06 0.07 0.07 0.06 0.08 0.14 0.16 0.18 0.19 0.20 0.15 0.14 0.15 0.14 0.14 0.14 0.14 0.13 0.12 0.11 0.13 0.13
0.00 0.00 0.00 0.00 0.00 0.00 0.00 0.00 0.00 0.00 0.01 0.01 0.01 0.01 0.01 0.03 0.09 0.03 0.03 0.04 0.05 0.07 0.08 0.07 0.09 0.08 0.13 0.15 0.15 0.14 0.15 0.14 0.11 0.14 0.16 0.16 0.15 0.15 0.15 0.14 0.14 0.13 0.13 0.12
0.00 0.00 0.00 0.00 0.00 0.00 0.00 0.00 0.01 0.02 0.03 0.01 0.02 0.02 0.02 0.03 0.03 0.04 0.05 0.05 0.06 0.06 0.09 0.10 0.09 0.09 0.13 0.13 0.14 0.13 0.14 0.13 0.12 0.14 0.16 0.16 0.15 0.15 0.14 0.13 0.12 0.13 0.13 0.15
0.00 0.00 0.00 0.00 0.01 0.01 0.02 0.04 0.04 0.03 0.03 0.04 0.05 0.01 0.03 0.03 0.04 0.05 0.06 0.07 0.08 0.08 0.11 0.11 0.11 0.11 0.14 0.15 0.15 0.14 0.14 0.14 0.13 0.13 0.15 0.16 0.16 0.15 0.15 0.15 0.16 0.15 0.15 0.15

GFSNGP_prec_precacc_045.txt.gz
Total_Precipitation_Accumulation
0.00 0.00 0.00 0.00 0.00 0.00 0.00 0.00 0.00 0.00 0.00 0.00 0.00 0.00 0.00 0.00 0.00 0.00 0.00 0.00 0.01 0.01 0.02 0.02 0.03 0.05 0.06 0.07 0.05 0.04 0.05 0.04 0.02 0.01 0.01 0.02 0.02 0.03 0.06 0.02 0.01 0.00 0.00 0.00
0.00 0.00 0.00 0.00 0.00 0.00 0.00 0.00 0.00 0.00 0.00 0.00 0.00 0.00 0.00 0.00 0.00 0.00 0.00 0.00 0.00 0.01 0.03 0.03 0.05 0.05 0.05 0.03 0.04 0.05 0.04 0.03 0.02 0.02 0.03 0.03 0.04 0.05 0.01 0.01 0.01 0.02 0.01 0.00
0.00 0.00 0.00 0.00 0.00 0.00 0.00 0.00 0.00 0.00 0.00 0.00 0.00 0.00 0.00 0.00 0.00 0.00 0.00 0.00 0.00 0.00 0.00 0.00 0.01 0.03 0.03 0.02 0.02 0.03 0.01 0.02 0.02 0.02 0.02 0.02 0.02 0.03 0.04 0.09 0.05 0.01 0.00 0.00
0.00 0.00 0.00 0.00 0.00 0.00 0.00 0.00 0.00 0.00 0.00 0.00 0.00 0.00 0.00 0.00 0.00 0.00 0.00 0.00 0.00 0.00 0.00 0.00 0.00 0.01 0.01 0.02 0.01 0.01 0.00 0.01 0.03 0.02 0.01 0.03 0.08 0.13 0.12 0.04 0.00 0.00 0.00 0.00
0.00 0.00 0.00 0.00 0.00 0.00 0.00 0.00 0.00 0.00 0.00 0.00 0.00 0.00 0.00 0.00 0.02 0.02 0.02 0.01 0.00 0.00 0.00 0.00 0.00 0.00 0.01 0.00 0.00 0.00 0.00 0.01 0.01 0.02 0.04 0.11 0.17 0.13 0.03 0.00 0.00 0.00 0.00 0.00
0.00 0.02 0.01 0.00 0.00 0.00 0.00 0.00 0.00 0.00 0.01 0.00 0.00 0.01 0.03 0.05 0.06 0.06 0.01 0.00 0.00 0.00 0.00 0.00 0.00 0.00 0.00 0.00 0.00 0.00 0.01 0.01 0.02 0.11 0.20 0.19 0.13 0.02 0.00 0.00 0.00 0.00 0.00 0.00
0.00 0.02 0.00 0.00 0.00 0.00 0.06 0.06 0.01 0.02 0.01 0.01 0.01 0.06 0.09 0.05 0.05 0.01 0.00 0.00 0.00 0.00 0.00 0.00 0.00 0.00 0.00 0.00 0.01 0.02 0.06 0.12 0.20 0.19 0.09 0.03 0.00 0.00 0.00 0.00 0.00 0.00 0.01 0.01
0.01 0.01 0.01 0.00 0.00 0.02 0.03 0.02 0.02 0.01 0.00 0.02 0.07 0.08 0.02 0.00 0.00 0.00 0.00 0.00 0.00 0.00 0.00 0.01 0.01 0.01 0.01 0.01 0.02 0.03 0.04 0.04 0.02 0.01 0.00 0.00 0.00 0.00 0.00 0.00 0.00 0.00 0.01 0.01
0.02 0.01 0.00 0.00 0.01 0.02 0.01 0.04 0.03 0.01 0.03 0.08 0.04 0.00 0.00 0.00 0.00 0.00 0.00 0.00 0.00 0.01 0.02 0.02 0.01 0.01 0.02 0.01 0.02 0.01 0.00 0.01 0.00 0.00 0.00 0.00 0.00 0.00 0.00 0.00 0.00 0.01 0.01 0.01
0.01 0.00 0.00 0.01 0.00 0.01 0.01 0.00 0.00 0.01 0.03 0.01 0.00 0.01 0.02 0.01 0.01 0.01 0.01 0.02 0.02 0.02 0.01 0.01 0.01 0.01 0.02 0.01 0.01 0.01 0.01 0.00 0.00 0.00 0.00 0.00 0.00 0.00 0.00 0.00 0.01 0.01 0.01 0.01
0.01 0.00 0.01 0.02 0.04 0.03 0.01 0.01 0.00 0.00 0.00 0.00 0.01 0.01 0.00 0.00 0.01 0.01 0.00 0.00 0.01 0.01 0.01 0.00 0.01 0.01 0.01 0.01 0.00 0.00 0.00 0.00 0.00 0.00 0.00 0.00 0.00 0.00 0.00 0.00 0.00 0.01 0.01 0.02
0.02 0.02 0.04 0.08 0.04 0.03 0.02 0.01 0.00 0.00 0.00 0.00 0.00 0.00 0.01 0.02 0.02 0.01 0.01 0.02 0.01 0.01 0.01 0.01 0.00 0.00 0.00 0.00 0.00 0.00 0.00 0.00 0.00 0.01 0.01 0.01 0.00 0.00 0.00 0.00 0.00 0.00 0.00 0.00
0.02 0.02 0.05 0.06 0.02 0.00 0.01 0.00 0.00 0.00 0.00 0.00 0.00 0.01 0.04 0.03 0.02 0.02 0.02 0.02 0.02 0.01 0.00 0.00 0.00 0.00 0.00 0.00 0.00 0.00 0.00 0.00 0.01 0.02 0.02 0.02 0.01 0.01 0.02 0.01 0.00 0.00 0.00 0.01
0.00 0.02 0.03 0.01 0.01 0.00 0.00 0.00 0.00 0.00 0.00 0.01 0.06 0.07 0.05 0.05 0.04 0.03 0.02 0.01 0.00 0.00 0.00 0.00 0.00 0.00 0.00 0.00 0.00 0.00 0.00 0.01 0.01 0.02 0.02 0.02 0.02 0.03 0.05 0.06 0.06 0.06 0.03 0.03
0.00 0.01 0.04 0.03 0.01 0.00 0.00 0.00 0.00 0.02 0.07 0.12 0.09 0.05 0.02 0.02 0.02 0.01 0.01 0.01 0.01 0.01 0.00 0.00 0.00 0.00 0.00 0.00 0.00 0.00 0.00 0.01 0.01 0.02 0.02 0.02 0.03 0.05 0.07 0.09 0.10 0.07 0.04 0.02
0.01 0.00 0.00 0.01 0.01 0.00 0.01 0.03 0.10 0.26 0.22 0.12 0.04 0.01 0.01 0.02 0.01 0.01 0.00 0.00 0.00 0.00 0.00 0.00 0.00 0.00 0.00 0.00 0.00 0.00 0.01 0.02 0.03 0.04 0.04 0.04 0.05 0.07 0.08 0.09 0.09 0.08 0.06 0.03
0.00 0.00 0.02 0.04 0.05 0.09 0.16 0.20 0.22 0.19 0.10 0.03 0.01 0.01 0.01 0.00 0.00 0.00 0.00 0.00 0.00 0.00 0.01 0.01 0.00 0.00 0.00 0.00 0.00 0.02 0.03 0.03 0.04 0.06 0.06 0.07 0.08 0.08 0.09 0.11 0.11 0.09 0.08 0.06
0.00 0.01 0.04 0.10 0.25 0.25 0.16 0.09 0.06 0.02 0.01 0.01 0.01 0.00 0.00 0.00 0.00 0.00 0.00 0.00 0.01 0.01 0.01 0.00 0.00 0.00 0.00 0.00 0.01 0.01 0.04 0.05 0.06 0.08 0.08 0.09 0.08 0.08 0.12 0.15 0.14 0.13 0.08 0.04
0.08 0.15 0.18 0.18 0.13 0.09 0.04 0.02 0.01 0.01 0.00 0.00 0.00 0.00 0.00 0.00 0.00 0.00 0.00 0.01 0.01 0.01 0.00 0.00 0.00 0.00 0.00 0.00 0.01 0.04 0.05 0.06 0.07 0.08 0.09 0.10 0.12 0.13 0.14 0.12 0.11 0.10 0.13 0.16
0.10 0.09 0.07 0.04 0.01 0.00 0.01 0.00 0.00 0.00 0.00 0.00 0.00 0.00 0.00 0.00 0.00 0.00 0.01 0.01 0.01 0.02 0.01 0.01 0.01 0.00 0.01 0.02 0.02 0.04 0.06 0.10 0.11 0.12 0.12 0.12 0.12 0.12 0.12 0.13 0.17 0.21 0.19 0.17
0.01 0.00 0.00 0.00 0.00 0.00 0.00 0.00 0.00 0.00 0.00 0.00 0.00 0.00 0.00 0.00 0.00 0.02 0.03 0.03 0.01 0.01 0.00 0.01 0.02 0.02 0.03 0.03 0.04 0.06 0.09 0.11 0.14 0.15 0.17 0.17 0.16 0.19 0.25 0.25 0.22 0.21 0.20 0.18
0.00 0.00 0.01 0.01 0.00 0.00 0.00 0.00 0.00 0.00 0.00 0.00 0.00 0.00 0.00 0.00 0.01 0.02 0.02 0.03 0.03 0.03 0.03 0.03 0.04 0.02 0.03 0.04 0.07 0.09 0.09 0.14 0.17 0.18 0.22 0.26 0.29 0.26 0.21 0.19 0.18 0.17 0.17 0.16
0.02 0.02 0.02 0.01 0.00 0.00 0.00 0.00 0.00 0.00 0.00 0.00 0.00 0.00 0.01 0.02 0.03 0.06 0.06 0.02 0.02 0.03 0.04 0.04 0.06 0.04 0.04 0.07 0.10 0.12 0.16 0.21 0.23 0.25 0.24 0.19 0.19 0.18 0.17 0.15 0.13 0.15 0.15 0.15
0.01 0.01 0.00 0.00 0.00 0.00 0.00 0.00 0.00 0.00 0.00 0.00 0.00 0.00 0.02 0.04 0.03 0.02 0.04 0.03 0.03 0.04 0.06 0.07 0.07 0.06 0.08 0.14 0.16 0.18 0.19 0.20 0.15 0.14 0.15 0.14 0.14 0.14 0.14 0.13 0.12 0.11 0.13 0.13
0.01 0.00 0.00 0.00 0.00 0.00 0.00 0.00 0.00 0.00 0.01 0.01 0.01 0.01 0.01 0.03 0.09 0.03 0.03 0.04 0.05 0.07 0.08 0.07 0.09 0.08 0.13 0.15 0.15 0.14 0.15 0.14 0.11 0.14 0.16 0.16 0.15 0.15 0.15 0.14 0.14 0.13 0.13 0.12
0.01 0.00 0.00 0.00 0.00 0.00 0.00 0.00 0.01 0.02 0.03 0.01 0.02 0.02 0.02 0.03 0.03 0.04 0.05 0.05 0.06 0.06 0.09 0.10 0.09 0.09 0.13 0.13 0.14 0.13 0.14 0.13 0.12 0.14 0.16 0.16 0.15 0.15 0.14 0.13 0.12 0.13 0.13 0.15
0.02 0.01 0.00 0.00 0.01 0.01 0.02 0.04 0.04 0.03 0.03 0.04 0.05 0.02 0.03 0.03 0.04 0.05 0.06 0.07 0.08 0.08 0.11 0.11 0.11 0.11 0.14 0.15 0.15 0.15 0.14 0.14 0.13 0.13 0.15 0.16 0.16 0.15 0.15 0.15 0.16 0.15 0.15 0.15

GFSNGP_prec_precacc_051.txt.gz
Total_Precipitation_Accumulation
0.00 0.00 0.00 0.00 0.00 0.00 0.00 0.00 0.00 0.00 0.00 0.00 0.00 0.00 0.00 0.00 0.00 0.00 0.00 0.00 0.01 0.01 0.03 0.04 0.07 0.09 0.10 0.11 0.10 0.11 0.11 0.10 0.08 0.05 0.03 0.03 0.02 0.03 0.06 0.03 0.01 0.01 0.02 0.05
0.00 0.00 0.00 0.00 0.00 0.00 0.00 0.00 0.00 0.00 0.00 0.00 0.00 0.00 0.00 0.00 0.00 0.00 0.00 0.00 0.00 0.01 0.03 0.04 0.05 0.06 0.06 0.04 0.05 0.06 0.06 0.05 0.03 0.02 0.03 0.03 0.04 0.05 0.01 0.01 0.03 0.08 0.09 0.05
0.00 0.00 0.00 0.00 0.00 0.00 0.00 0.00 0.00 0.00 0.00 0.00 0.00 0.00 0.00 0.00 0.00 0.00 0.00 0.00 0.00 0.00 0.00 0.00 0.01 0.03 0.03 0.02 0.02 0.03 0.02 0.02 0.02 0.02 0.02 0.02 0.02 0.03 0.05 0.13 0.15 0.13 0.12 0.08
0.00 0.00 0.00 0.00 0.00 0.00 0.00 0.00 0.00 0.00 0.00 0.00 0.00 0.00 0.00 0.00 0.00 0.00 0.00 0.00 0.00 0.00 0.00 0.00 0.00 0.01 0.01 0.02 0.01 0.01 0.00 0.01 0.03 0.02 0.01 0.03 0.09 0.15 0.19 0.18 0.16 0.10 0.03 0.00
0.00 0.00 0.00 0.00 0.00 0.00 0.00 0.00 0.00 0.00 0.00 0.00 0.00 0.00 0.00 0.00 0.02 0.02 0.02 0.01 0.00 0.00 0.00 0.00 0.00 0.00 0.01 0.00 0.00 0.00 0.00 0.01 0.01 0.02 0.05 0.13 0.23 0.26 0.17 0.07 0.01 0.00 0.00 0.00
0.00 0.02 0.01 0.00 0.00 0.00 0.00 0.00 0.00 0.00 0.01 0.00 0.00 0.01 0.03 0.05 0.06 0.06 0.01 0.00 0.00 0.00 0.00 0.00 0.00 0.00 0.00 0.00 0.00 0.00 0.01 0.01 0.02 0.13 0.27 0.29 0.20 0.04 0.00 0.00 0.00 0.00 0.00 0.00
0.00 0.02 0.00 0.00 0.00 0.00 0.06 0.06 0.01 0.02 0.01 0.01 0.01 0.06 0.09 0.05 0.05 0.01 0.00 0.00 0.00 0.00 0.00 0.00 0.00 0.00 0.00 0.00 0.01 0.02 0.06 0.13 0.22 0.22 0.10 0.03 0.00 0.00 0.00 0.00 0.00 0.00 0.01 0.01
0.01 0.01 0.01 0.00 0.00 0.02 0.03 0.02 0.02 0.01 0.00 0.02 0.07 0.08 0.02 0.00 0.00 0.00 0.00 0.00 0.00 0.00 0.00 0.01 0.01 0.01 0.01 0.01 0.02 0.03 0.05 0.04 0.02 0.01 0.00 0.00 0.00 0.00 0.00 0.00 0.00 0.00 0.01 0.01
0.02 0.01 0.00 0.00 0.01 0.02 0.01 0.04 0.03 0.01 0.03 0.08 0.04 0.00 0.00 0.00 0.00 0.00 0.00 0.00 0.00 0.01 0.02 0.02 0.01 0.01 0.02 0.01 0.02 0.01 0.00 0.01 0.00 0.00 0.00 0.00 0.00 0.00 0.00 0.00 0.00 0.01 0.01 0.01
0.01 0.00 0.00 0.01 0.00 0.01 0.01 0.00 0.00 0.01 0.03 0.01 0.00 0.01 0.02 0.01 0.01 0.01 0.01 0.02 0.02 0.02 0.01 0.01 0.01 0.01 0.02 0.01 0.01 0.01 0.01 0.00 0.00 0.00 0.00 0.00 0.00 0.00 0.00 0.00 0.01 0.01 0.01 0.01
0.01 0.00 0.01 0.02 0.04 0.03 0.01 0.01 0.00 0.00 0.00 0.00 0.01 0.01 0.00 0.00 0.01 0.01 0.00 0.00 0.01 0.01 0.01 0.00 0.01 0.01 0.01 0.01 0.00 0.00 0.00 0.00 0.00 0.00 0.00 0.00 0.00 0.00 0.00 0.00 0.00 0.01 0.01 0.02
0.03 0.02 0.04 0.08 0.04 0.03 0.02 0.01 0.00 0.00 0.00 0.00 0.00 0.00 0.01 0.02 0.02 0.01 0.01 0.02 0.01 0.01 0.01 0.01 0.00 0.00 0.00 0.00 0.00 0.00 0.00 0.00 0.00 0.01 0.01 0.01 0.00 0.00 0.00 0.00 0.00 0.00 0.00 0.00
0.02 0.03 0.05 0.06 0.02 0.00 0.01 0.00 0.00 0.00 0.00 0.00 0.00 0.01 0.04 0.03 0.02 0.02 0.02 0.02 0.02 0.01 0.00 0.00 0.00 0.00 0.00 0.00 0.00 0.00 0.00 0.00 0.01 0.02 0.02 0.02 0.01 0.01 0.02 0.01 0.00 0.00 0.00 0.01
0.00 0.02 0.03 0.01 0.01 0.00 0.00 0.00 0.00 0.00 0.00 0.01 0.06 0.07 0.05 0.05 0.04 0.03 0.02 0.01 0.00 0.00 0.00 0.00 0.00 0.00 0.00 0.00 0.00 0.00 0.00 0.01 0.01 0.02 0.02 0.02 0.02 0.03 0.05 0.06 0.06 0.06 0.03 0.03
0.00 0.01 0.04 0.03 0.01 0.00 0.00 0.00 0.00 0.02 0.07 0.12 0.09 0.05 0.02 0.02 0.02 0.01 0.01 0.01 0.01 0.01 0.00 0.00 0.00 0.00 0.00 0.00 0.00 0.00 0.00 0.01 0.01 0.02 0.02 0.02 0.03 0.05 0.07 0.09 0.10 0.07 0.04 0.02
0.01 0.00 0.00 0.01 0.01 0.00 0.01 0.03 0.10 0.26 0.22 0.12 0.04 0.01 0.01 0.02 0.01 0.01 0.00 0.00 0.00 0.00 0.00 0.00 0.00 0.00 0.00 0.00 0.00 0.00 0.01 0.02 0.03 0.04 0.04 0.04 0.05 0.07 0.08 0.09 0.09 0.08 0.06 0.03
0.00 0.00 0.02 0.04 0.05 0.09 0.16 0.20 0.22 0.19 0.10 0.03 0.01 0.01 0.01 0.00 0.00 0.00 0.00 0.00 0.00 0.00 0.01 0.01 0.00 0.00 0.00 0.00 0.00 0.02 0.03 0.03 0.04 0.06 0.06 0.07 0.08 0.09 0.09 0.11 0.11 0.09 0.08 0.07
0.00 0.01 0.04 0.10 0.25 0.25 0.16 0.09 0.06 0.02 0.01 0.01 0.01 0.00 0.00 0.00 0.00 0.00 0.00 0.00 0.01 0.01 0.01 0.00 0.00 0.00 0.00 0.00 0.01 0.01 0.04 0.05 0.06 0.08 0.08 0.09 0.08 0.08 0.12 0.15 0.14 0.13 0.08 0.04
0.08 0.15 0.18 0.18 0.13 0.09 0.04 0.02 0.02 0.02 0.03 0.04 0.03 0.01 0.00 0.00 0.00 0.00 0.00 0.01 0.01 0.01 0.00 0.00 0.00 0.00 0.00 0.00 0.01 0.04 0.05 0.06 0.07 0.08 0.09 0.10 0.12 0.14 0.14 0.12 0.11 0.10 0.13 0.16
0.13 0.10 0.08 0.04 0.01 0.00 0.01 0.03 0.05 0.06 0.05 0.03 0.01 0.00 0.00 0.00 0.00 0.00 0.01 0.01 0.01 0.02 0.01 0.01 0.01 0.00 0.01 0.02 0.02 0.04 0.06 0.10 0.11 0.12 0.12 0.12 0.12 0.12 0.12 0.13 0.17 0.21 0.19 0.17
0.03 0.02 0.01 0.02 0.03 0.06 0.07 0.08 0.08 0.07 0.04 0.01 0.00 0.00 0.00 0.00 0.00 0.02 0.03 0.03 0.01 0.01 0.00 0.01 0.02 0.02 0.03 0.03 0.04 0.06 0.09 0.11 0.14 0.15 0.17 0.17 0.16 0.19 0.25 0.25 0.22 0.21 0.21 0.18
0.06 0.06 0.06 0.07 0.06 0.08 0.07 0.07 0.04 0.01 0.00 0.00 0.00 0.00 0.00 0.00 0.01 0.02 0.02 0.03 0.03 0.03 0.03 0.03 0.04 0.02 0.03 0.04 0.07 0.09 0.09 0.14 0.17 0.18 0.22 0.26 0.29 0.26 0.21 0.19 0.19 0.17 0.17 0.16
0.08 0.07 0.08 0.08 0.05 0.05 0.05 0.02 0.01 0.00 0.00 0.00 0.00 0.00 0.01 0.02 0.03 0.06 0.06 0.02 0.02 0.03 0.04 0.04 0.06 0.04 0.04 0.07 0.10 0.12 0.16 0.21 0.23 0.25 0.24 0.19 0.19 0.18 0.17 0.15 0.13 0.15 0.15 0.15
0.10 0.10 0.09 0.07 0.04 0.02 0.01 0.01 0.01 0.00 0.00 0.00 0.00 0.00 0.02 0.04 0.03 0.02 0.04 0.03 0.03 0.04 0.06 0.07 0.07 0.06 0.08 0.14 0.16 0.18 0.19 0.20 0.15 0.14 0.15 0.14 0.14 0.14 0.14 0.13 0.12 0.12 0.13 0.14
0.10 0.11 0.10 0.09 0.06 0.04 0.02 0.01 0.00 0.00 0.01 0.01 0.01 0.01 0.01 0.03 0.09 0.03 0.03 0.04 0.05 0.07 0.08 0.07 0.09 0.08 0.13 0.15 0.15 0.15 0.15 0.14 0.11 0.15 0.16 0.16 0.15 0.15 0.15 0.14 0.14 0.13 0.14 0.13
0.10 0.09 0.09 0.07 0.05 0.04 0.02 0.01 0.02 0.02 0.03 0.02 0.02 0.02 0.02 0.03 0.03 0.04 0.05 0.05 0.06 0.06 0.09 0.10 0.09 0.09 0.13 0.14 0.14 0.13 0.14 0.13 0.12 0.14 0.16 0.16 0.15 0.15 0.14 0.13 0.12 0.13 0.14 0.15
0.12 0.10 0.08 0.06 0.07 0.07 0.06 0.08 0.07 0.06 0.06 0.06 0.07 0.03 0.05 0.04 0.04 0.05 0.06 0.07 0.08 0.08 0.11 0.12 0.11 0.11 0.14 0.15 0.16 0.15 0.15 0.14 0.13 0.14 0.15 0.16 0.16 0.15 0.15 0.15 0.16 0.15 0.15 0.15